Regional Weather Roundup
Issued by NWS Portland, ME

Current Version | Previous Version | Text Only | Print | Product List | Glossary On
Versions: 1 2 3 4 5 6 7 8 9 10 11 12 13 14 15 16 17 18 19 20 21 22 23 24 25 26 27 28 29 30 31 32 33 34 35 36 37 38 39 40 41 42 43 44 45 46 47 48 49 50
000 ASUS41 KGYX 220010 RWRGYX WEATHER ROUNDUP FOR MAINE AND NEW HAMPSHIRE NATIONAL WEATHER SERVICE GRAY ME 800 PM EDT SAT OCT 21 2017 MEZ002-005-006-010-012-015-018-020-021-024-026-027-029-220100- MAINE CITY SKY/WX TMP DP RH WIND PRES REMARKS PORTLAND MOCLDY 55 51 86 VRB5 30.28R 6HR MIN TEMP: 53; 6HR MAX TEMP: 69; SANFORD MOCLDY 53 49 86 CALM 30.28R BAR HARBOR PTCLDY 49 43 80 CALM 30.30R WISCASSET CLOUDY 51 47 86 CALM 30.30R 6HR MIN TEMP: 51; 6HR MAX TEMP: 69; ROCKLAND CLOUDY 49 47 93 CALM 30.29R FRYEBURG NOT AVBL LEWISTONAUBURN PTCLDY 53 44 71 CALM 30.28R AUGUSTA PTCLDY 58 45 62 SE5 30.29R 6HR MIN TEMP: 58; 6HR MAX TEMP: 72; WATERVILLE PTCLDY 56 45 66 CALM 30.26R BANGOR MOCLDY 57 40 52 S5 30.29R 6HR MIN TEMP: 55; 6HR MAX TEMP: 69; GREENVILLE N/A 51 42 71 CALM 30.27R 6HR MIN TEMP: 51; 6HR MAX TEMP: 63; MILLINOCKET CLEAR 47 43 86 CALM 30.30R 6HR MIN TEMP: 47; 6HR MAX TEMP: 65; HOULTON CLEAR 38 34 85 CALM 30.29R 6HR MIN TEMP: 36; 6HR MAX TEMP: 59; PRESQUE ISLE PTCLDY 39 32 76 CALM 30.32R 6HR MIN TEMP: 38; 6HR MAX TEMP: 56; FRENCHVILLE CLEAR 40 23 50 NW7 30.30R 6HR MIN TEMP: 40; 6HR MAX TEMP: 51; CARIBOU PTCLDY 42 28 57 CALM 30.30R 6HR MIN TEMP: 42; 6HR MAX TEMP: 56; $$ NHZ002-005-008-009-011-012-014-220100- NEW HAMPSHIRE CITY SKY/WX TMP DP RH WIND PRES REMARKS PORTSMOUTH CLOUDY 63 47 55 SW3 30.26R ROCHESTER CLOUDY 64 46 52 CALM 30.27S 6HR MIN TEMP: 59; 6HR MAX TEMP: 77; NASHUA CLOUDY 61 50 67 CALM 30.30R MANCHESTER MOCLDY 62 49 62 S5 30.28R 6HR MIN TEMP: 62; 6HR MAX TEMP: 77; CONCORD CLOUDY 56 49 77 E3 30.29R 6HR MIN TEMP: 56; 6HR MAX TEMP: 79; LACONIA CLOUDY 58 50 75 W5 30.29R PLYMOUTH FAIR 54 49 83 CALM 30.29S BERLIN PTCLDY 51 46 83 CALM 30.29R 6HR MIN TEMP: 51; 6HR MAX TEMP: 73; WHITEFIELD CLOUDY 51 46 83 CALM 30.30R 6HR MIN TEMP: 51; 6HR MAX TEMP: 72; JAFFREY CLOUDY 56 50 80 CALM 30.33R 6HR MIN TEMP: 55; 6HR MAX TEMP: 75; KEENE CLOUDY 53 48 83 CALM 30.32R LEBANON CLOUDY 54 48 80 CALM 30.29R 6HR MIN TEMP: 54; 6HR MAX TEMP: 79; MT WASHINGTON MOCLDY 43 41 93 NW36 N/A 6HR MIN TEMP: 43; 6HR MAX TEMP: 46; $$ VTZ005-007-008-220100- VERMONT CITY SKY/WX TMP DP RH WIND PRES REMARKS ST JOHNSBURY N/A 56 50 80 MISG 30.28R BURLINGTON CLEAR 60 47 61 CALM 30.27S $$ MAZ007-012-024-CTZ003-RIZ002-NYZ038-NYZ072-220100- SOUTHERN NEW ENGLAND AND NY CITY SKY/WX TMP DP RH WIND PRES REMARKS BOSTON CLOUDY 63 48 58 S10 30.30R WORCESTER CLOUDY 64 39 39 W9 30.33R NANTUCKET CLOUDY 59 56 89 SW10 30.35R PROVIDENCE CLOUDY 61 48 62 SW5 30.33R HARTFORD CLOUDY 61 44 53 S3 30.31R ALBANY CLOUDY 54 47 77 CALM 30.31R NEW YORK CITY MOCLDY 68 43 40 S8 30.33S $$ ANZ081-ANZ082-ANZ150-NHZ014-MEZ023>029-220100- COASTAL MARINE OBSERVATIONS STATION/POSITION TIME TEMP WIND PRES WAVE AIR SEA DIR/SP/G HT/PER (UTC) (F) (DEG/KT/KT) (MB) (FT/S) MOUNT DESERT ROC 0000 55 150/ 9/ 10 1026.1R MATINICUS ROCK 2300 56 160/ 9/ 10 1025.1R ISLE OF SHOALS 2300 69 220/ 11/ 12 1024.6R JEFFREYS LEDGE 2336 58 N/A 2/ 8 GEORGES BANK BUO 2250 58 59 1027.0 3/ 5 $$ .............KEY.............. WCI - WIND CHILL TC - TEMPERATURE IN CELSIUS VSB - VISIBILITY IN MILES HX - HEAT INDEX FAIR- INDICATES FEW OR NO CLOUDS BELOW 12,000 FT, WITH NO SIGNIFICANT WEATHER AND/OR OBSTRUCTIONS TO VISIBILITY.

USA.gov is the U.S. government's official web portal to all federal, state and local government web resources and services.